timestamp,surface_pressure_avg,surface_temp_avg,battery_voltage,lat,long
2018-03-29 00:00:00+00:00,272.0514,1.9,12.65,47.84626,-54.09684
2018-03-29 00:10:00+00:00,264.2914,1.9,12.57,47.84626,-54.09684
2018-03-29 00:20:00+00:00,257.6764,1.9,12.65,47.84626,-54.09684
2018-03-29 00:30:00+00:00,248.6514,1.9,12.65,47.84626,-54.09684
2018-03-29 00:40:00+00:00,242.4181,1.9,12.65,47.84626,-54.09684
2018-03-29 00:50:00+00:00,238.9698,1.9,12.65,47.84626,-54.09684
2018-03-29 01:00:00+00:00,234.8982,1.79,12.65,47.84626,-54.09684
2018-03-29 01:10:00+00:00,223.5781,1.74,12.57,47.84626,-54.09684
2018-03-29 01:20:00+00:00,213.7531,1.78,12.65,47.84626,-54.09684
2018-03-29 01:30:00+00:00,209.9114,1.78,12.65,47.84626,-54.09684
2018-03-29 01:40:00+00:00,204.6448,1.75,12.65,47.84626,-54.09684
2018-03-29 01:50:00+00:00,198.7531,1.72,12.65,47.84626,-54.09684
2018-03-29 02:00:00+00:00,197.6498,1.7,12.65,47.84626,-54.09684
2018-03-29 02:10:00+00:00,198.3314,1.7,12.57,47.84626,-54.09684
2018-03-29 02:20:00+00:00,197.8181,1.7,12.65,47.84626,-54.09684
2018-03-29 02:30:00+00:00,194.4881,1.7,12.65,47.84626,-54.09684
2018-03-29 02:40:00+00:00,189.3465,1.7,12.65,47.84626,-54.09684
2018-03-29 02:50:00+00:00,185.1465,1.7,12.65,47.84626,-54.09684
2018-03-29 03:00:00+00:00,185.2448,1.7,12.65,47.84626,-54.09684
2018-03-29 03:10:00+00:00,187.1831,1.7,12.57,47.84626,-54.09684
2018-03-29 03:20:00+00:00,185.1448,1.7,12.65,47.84626,-54.09684
2018-03-29 03:30:00+00:00,183.3748,1.7,12.65,47.84626,-54.09684
2018-03-29 03:40:00+00:00,186.4282,1.7,12.65,47.84626,-54.09684
2018-03-29 03:50:00+00:00,189.5482,1.7,12.65,47.84626,-54.09684
2018-03-29 04:00:00+00:00,189.8781,1.7,12.65,47.84626,-54.09684
2018-03-29 04:10:00+00:00,190.0481,1.7,12.57,47.84626,-54.09684
2018-03-29 04:20:00+00:00,192.4164,1.7,12.65,47.84626,-54.09684
2018-03-29 04:30:00+00:00,197.0815,1.7,12.65,47.84626,-54.09684
2018-03-29 04:40:00+00:00,196.5181,1.7,12.65,47.84626,-54.09684
2018-03-29 04:50:00+00:00,198.2565,1.7,12.65,47.84626,-54.09684
2018-03-29 05:00:00+00:00,206.9931,1.7,12.65,47.84626,-54.09684
2018-03-29 05:10:00+00:00,207.9998,1.7,12.57,47.84626,-54.09684
2018-03-29 05:20:00+00:00,206.0448,1.7,12.65,47.84626,-54.09684
2018-03-29 05:30:00+00:00,209.9514,1.7,12.65,47.84626,-54.09684
2018-03-29 05:40:00+00:00,215.3081,1.7,12.65,47.84626,-54.09684
2018-03-29 05:50:00+00:00,218.2148,1.7,12.65,47.84626,-54.09684
2018-03-29 06:00:00+00:00,220.5598,1.7,12.65,47.84626,-54.09684
2018-03-29 06:10:00+00:00,226.1181,1.7,12.57,47.84626,-54.09684
2018-03-29 06:20:00+00:00,235.5814,1.7,12.65,47.84626,-54.09684
2018-03-29 06:30:00+00:00,241.6331,1.7,12.65,47.84626,-54.09684
2018-03-29 06:40:00+00:00,246.713,1.7,12.65,47.84626,-54.09684
2018-03-29 06:50:00+00:00,255.4697,1.7,12.65,47.84626,-54.09684
2018-03-29 07:00:00+00:00,267.5081,1.7,12.65,47.84626,-54.09684
2018-03-29 07:10:00+00:00,276.013,1.7,12.57,47.84626,-54.09684
2018-03-29 07:20:00+00:00,283.0264,1.7,12.65,47.84626,-54.09684
2018-03-29 07:30:00+00:00,289.9114,1.7,12.65,47.84626,-54.09684
2018-03-29 07:40:00+00:00,298.0463,1.7,12.65,47.84626,-54.09684
2018-03-29 07:50:00+00:00,305.613,1.7,12.65,47.84626,-54.09684
2018-03-29 08:00:00+00:00,315.6063,1.7,12.65,47.84626,-54.09684
2018-03-29 08:10:00+00:00,324.9563,1.7,12.57,47.84626,-54.09684
2018-03-29 08:20:00+00:00,333.0145,1.7,12.65,47.84626,-54.09684
2018-03-29 08:30:00+00:00,338.5863,1.7,12.65,47.84626,-54.09684
2018-03-29 08:40:00+00:00,342.7062,1.7,12.65,47.84626,-54.09684
2018-03-29 08:50:00+00:00,344.5279,1.7,12.65,47.84626,-54.09684
2018-03-29 09:00:00+00:00,349.7196,1.7,12.65,47.84626,-54.09684
2018-03-29 09:10:00+00:00,355.2812,1.7,12.57,47.84626,-54.09684
2018-03-29 09:20:00+00:00,356.2213,1.7,12.65,47.84626,-54.09684
2018-03-29 09:30:00+00:00,357.168,1.7,12.65,47.84626,-54.09684
2018-03-29 09:40:00+00:00,359.7814,1.7,12.65,47.84626,-54.09684
2018-03-29 09:50:00+00:00,359.5246,1.7,12.65,47.84626,-54.09684
2018-03-29 10:00:00+00:00,360.2479,1.7,12.65,47.84626,-54.09684
2018-03-29 10:10:00+00:00,364.1379,1.7,12.57,47.84626,-54.09684
2018-03-29 10:20:00+00:00,367.0346,1.7,12.65,47.84626,-54.09684
2018-03-29 10:30:00+00:00,364.8362,1.7,12.65,47.84626,-54.09684
2018-03-29 10:40:00+00:00,362.2313,1.7,12.65,47.84626,-54.09684
2018-03-29 10:50:00+00:00,358.903,1.7,12.65,47.84626,-54.09684
2018-03-29 11:00:00+00:00,354.1429,1.79,12.65,47.84626,-54.09684
2018-03-29 11:10:00+00:00,350.0813,1.7,12.57,47.84626,-54.09684
2018-03-29 11:20:00+00:00,349.9979,1.7,12.65,47.84626,-54.09684
2018-03-29 11:30:00+00:00,347.0812,1.75,12.65,47.84626,-54.09684
2018-03-29 11:40:00+00:00,338.8247,1.78,12.65,47.84626,-54.09684
2018-03-29 11:50:00+00:00,330.6429,1.7,12.65,47.84626,-54.09684
2018-03-29 12:00:00+00:00,330.4014,1.7,12.65,47.84626,-54.09684
2018-03-29 12:10:00+00:00,324.7447,1.8,12.65,47.84626,-54.09684
2018-03-29 12:20:00+00:00,314.493,1.8,12.73,47.84626,-54.09684
2018-03-29 12:30:00+00:00,311.8246,1.8,12.81,47.84626,-54.09684
2018-03-29 12:40:00+00:00,310.7596,1.8,12.73,47.84626,-54.09684
2018-03-29 12:50:00+00:00,296.5013,1.8,12.73,47.84626,-54.09684
2018-03-29 13:00:00+00:00,280.563,1.8,12.65,47.84626,-54.09684
2018-03-29 13:10:00+00:00,277.6631,1.8,12.73,47.84626,-54.09684
2018-03-29 13:20:00+00:00,274.3097,1.8,12.73,47.84626,-54.09684
2018-03-29 13:30:00+00:00,261.0764,1.83,12.73,47.84626,-54.09684
2018-03-29 13:40:00+00:00,253.0681,1.81,12.89,47.84626,-54.09684
2018-03-29 13:50:00+00:00,250.2064,1.8,12.81,47.84626,-54.09684
2018-03-29 14:00:00+00:00,238.6681,1.83,12.65,47.84626,-54.09684
2018-03-29 14:10:00+00:00,224.1764,1.89,12.65,47.84626,-54.09684
2018-03-29 14:20:00+00:00,222.6531,1.9,12.73,47.84626,-54.09684
2018-03-29 14:30:00+00:00,222.9064,1.9,12.73,47.84626,-54.09684
2018-03-29 14:40:00+00:00,214.4615,1.89,12.73,47.84626,-54.09684
2018-03-29 14:50:00+00:00,204.9798,1.89,12.73,47.84626,-54.09684
2018-03-29 15:00:00+00:00,204.8098,1.88,12.65,47.84626,-54.09684
2018-03-29 15:10:00+00:00,206.1031,1.87,12.65,47.84626,-54.09684
2018-03-29 15:20:00+00:00,203.4798,1.82,12.73,47.84626,-54.09684
2018-03-29 15:30:00+00:00,200.8065,1.8,12.65,47.84626,-54.09684
2018-03-29 15:40:00+00:00,201.1414,1.8,12.65,47.84626,-54.09684
2018-03-29 15:50:00+00:00,198.6465,1.8,12.65,47.84626,-54.09684
2018-03-29 16:00:00+00:00,193.0731,1.8,12.65,47.84626,-54.09684
2018-03-29 16:10:00+00:00,192.5598,1.8,12.65,47.84626,-54.09684
2018-03-29 16:20:00+00:00,193.5298,1.8,12.73,47.84626,-54.09684
2018-03-29 16:30:00+00:00,190.3065,1.8,12.65,47.84626,-54.09684
2018-03-29 16:40:00+00:00,188.7898,1.8,12.65,47.84626,-54.09684
2018-03-29 16:50:00+00:00,191.4898,1.8,12.73,47.84626,-54.09684
2018-03-29 17:00:00+00:00,193.5582,1.9,12.73,47.84626,-54.09684
2018-03-29 17:10:00+00:00,195.7815,2.1,12.65,47.84626,-54.09684
2018-03-29 17:20:00+00:00,199.4598,2.18,12.73,47.84626,-54.09684
2018-03-29 17:30:00+00:00,201.0631,2.1,12.73,47.84626,-54.09684
2018-03-29 17:40:00+00:00,203.3498,2.1,12.73,47.84626,-54.09684
2018-03-29 17:50:00+00:00,206.7014,2.2,12.81,47.84626,-54.09684
2018-03-29 18:00:00+00:00,207.4431,2.19,12.73,47.84626,-54.09684
2018-03-29 18:10:00+00:00,208.9565,2.19,12.73,47.84626,-54.09684
2018-03-29 18:20:00+00:00,214.7415,2.17,12.81,47.84626,-54.09684
2018-03-29 18:30:00+00:00,219.0231,1.9,12.81,47.84626,-54.09684
2018-03-29 18:40:00+00:00,223.9615,1.9,12.81,47.84626,-54.09684
2018-03-29 18:50:00+00:00,231.9714,1.9,12.81,47.84626,-54.09684
2018-03-29 19:00:00+00:00,239.6565,1.9,12.73,47.84626,-54.09684
2018-03-29 19:10:00+00:00,245.8381,1.89,12.73,47.84626,-54.09684
2018-03-29 19:20:00+00:00,252.4481,1.9,12.81,47.84626,-54.09684
2018-03-29 19:30:00+00:00,261.4981,1.85,12.81,47.84626,-54.09684
2018-03-29 19:40:00+00:00,266.5747,1.85,12.81,47.84626,-54.09684
2018-03-29 19:50:00+00:00,269.9597,1.84,12.81,47.84626,-54.09684
2018-03-29 20:00:00+00:00,274.428,1.8,12.73,47.84626,-54.09684
2018-03-29 20:10:00+00:00,281.7764,1.8,12.65,47.84626,-54.09684
2018-03-29 20:20:00+00:00,290.3698,1.77,12.73,47.84626,-54.09684
2018-03-29 20:30:00+00:00,299.6113,1.7,12.73,47.84626,-54.09684
2018-03-29 20:40:00+00:00,307.7097,1.7,12.73,47.84626,-54.09684
2018-03-29 20:50:00+00:00,317.2064,1.7,12.73,47.84626,-54.09684
2018-03-29 21:00:00+00:00,325.2996,1.7,12.73,47.84626,-54.09684
2018-03-29 21:10:00+00:00,331.8479,1.67,12.65,47.84626,-54.09684
2018-03-29 21:20:00+00:00,334.863,1.67,12.73,47.84626,-54.09684
2018-03-29 21:30:00+00:00,341.2397,1.68,12.73,47.84626,-54.09684
2018-03-29 21:40:00+00:00,343.8096,1.69,12.73,47.84626,-54.09684
2018-03-29 21:50:00+00:00,342.3879,1.7,12.73,47.84626,-54.09684
2018-03-29 22:00:00+00:00,341.033,1.77,12.65,47.84626,-54.09684
2018-03-29 22:10:00+00:00,347.7214,1.8,12.65,47.84626,-54.09684
2018-03-29 22:20:00+00:00,355.3895,1.8,12.65,47.84626,-54.09684
2018-03-29 22:30:00+00:00,353.6863,1.86,12.65,47.84626,-54.09684
2018-03-29 22:40:00+00:00,353.178,1.8,12.65,47.84626,-54.09684
2018-03-29 22:50:00+00:00,360.718,1.8,12.65,47.84626,-54.09684
2018-03-29 23:00:00+00:00,360.688,1.78,12.65,47.84626,-54.09684
2018-03-29 23:10:00+00:00,350.0229,1.79,12.65,47.84626,-54.09684
2018-03-29 23:20:00+00:00,342.2813,1.79,12.65,47.84626,-54.09684
2018-03-29 23:30:00+00:00,342.378,1.72,12.65,47.84626,-54.09684
2018-03-29 23:40:00+00:00,335.2379,1.7,12.65,47.84626,-54.09684
2018-03-29 23:50:00+00:00,323.433,1.77,12.65,47.84626,-54.09684
